Weather in Slobodskoy

Russia / Kirov Oblast     58°43′54″N   50°11′01″E
temp.,
°C
wind,
m/s
gust,
m/s
humid.,
%
clouds,
%
prec.,
mm/h
press.,
hPa
HPBL,
m
3 august, tue
tue300:00+18se2281100 0.0 101034
03:00+17se2388100 0.0 101054
06:00+20se268374 0.0 1009180
09:00+26s475779 0.0 1008575
12:00+30s47465 0.0 10081074
15:00+32s48395 0.0 10062521
18:00+21w51276100 1.0 1007305
21:00+18w2797100 2.2 1008186
4 august, wed
wed400:00+18ssw3897100 0.0 1009256
03:00+17wsw2699100 0.0 1009160
06:00+18sw1295100 0.0 1010145
09:00+19nw129144 0.0 1011215
12:00+26e114966 0.4 10101441
15:00+19ssw2390100 2.2 101052
18:00+17wnw4798100 7.8 1009280
21:00+17nw41098100 16.9 1009487
5 august, thu
thu500:00+16nnw51396100 8.9 1010847
03:00+15nnw41396100 11.4 1010642
06:00+15nnw4129412 0.1 1012670
09:00+19nnw586114 0.1 10141059
12:00+21nnw46457 0.0 10141749
15:00+22nnw45389 0.0 10152229
18:00+19nw385611 0.0 1016355
21:00+12nnw310696 0.0 1017191
6 august, fri
fri600:00+10nnw29773 0.0 1018179
03:00+9nnw24850 0.0 101990
06:00+12n25700 0.0 1020203
09:00+17n2451100 0.0 1019879
12:00+19nnw354299 0.0 10191946
15:00+20nnw3441100 0.0 10181943
18:00+17n1165100 0.0 101814
21:00+15nne1164100 0.0 101811
7 august, sat
sat700:00+13ene1171100 0.0 101911
03:00+12nne1186100 0.3 102019
06:00+11ene2289100 0.1 102063
09:00+12ese2486100 0.1 1020174
12:00+12ese1485100 0.0 1021217
15:00+13se1378100 0.0 1021248
18:00+15se1274100 0.0 1020347
21:00+11ese2285100 0.0 102037